Weather History for Holloman AFB, NM

Change the Weather History Date:

Saturday, February 9, 2013

  Actual Average Record
Temperature  
Mean Temperature 48 °F -  
Max Temperature 60 °F 56 °F 75 °F (2000)
Min Temperature 36 °F 28 °F 17 °F (2004)
Degree Days  
Heating Degree Days 17    
Moisture  
Dew Point 16 °F    
Average Humidity 28    
Maximum Humidity 39    
Minimum Humidity 14    
Precipitation  
Precipitation 0.00 in - - ()
Sea Level Pressure  
Sea Level Pressure 29.72 in    
Wind  
Wind Speed 18 mph (SW)    
Max Wind Speed 34 mph    
Max Gust Speed 44 mph    
Visibility 8 miles    
Events      
Averages and records for this station are not official NWS values.
T = Trace of Precipitation, MM = Missing Value Source: NWS Daily Summary

Daily Weather History Graph

Daily Weather History Graph

Search for Another Location

Airport:

Trip Planner

Search our weather history database for the weather conditions in past years. The results will help you decide how hot, cold, wet, or windy it might be!

Date:

Astronomy

Feb. 09, 2013 Rise Set
Actual Time 6:52 AM MST 5:44 PM MST
Civil Twilight 6:27 AM MST 6:10 PM MST
Nautical Twilight 5:58 AM MST 6:39 PM MST
Astronomical Twilight 5:29 AM MST 7:08 PM MST
Moon 6:07 AM MST (2/9) 5:28 PM MST (2/9)
Length of Visible Light 11h 42m
Length of Day
10h 51m
Waning Crescent, 0% of the Moon is Illuminated
Feb 9
Waning Crescent
Feb 10
New
Feb 17
First Quarter
Feb 25
Full
Mar 4
Last Quarter

Hourly Weather History & Observations

Time (MST) Temp. Windchill Dew Point Humidity Pressure Visibility Wind Dir Wind Speed Gust Speed Precip Events Conditions
12:58 AM 51.6 °F - 26.1 °F 37% 29.68 in 10.0 mi SSE 16.1 mph - N/A   Clear
1:58 AM 49.8 °F - 23.2 °F 35% 29.68 in 10.0 mi SSE 13.8 mph - N/A   Clear
2:58 AM 48.4 °F - 21.6 °F 35% 29.66 in 10.0 mi South 11.5 mph - N/A   Clear
3:58 AM 48.0 °F - 18.0 °F 30% 29.64 in 10.0 mi South 11.5 mph - N/A   Clear
4:58 AM 48.4 °F - 17.2 °F 29% 29.62 in 10.0 mi SSE 15.0 mph - N/A   Clear
5:58 AM 45.5 °F 39.6 °F 16.2 °F 31% 29.63 in 10.0 mi SSE 12.7 mph - N/A   Clear
6:58 AM 47.7 °F - 17.1 °F 30% 29.64 in 10.0 mi South 13.8 mph - N/A   Clear
7:58 AM 51.3 °F - 19.4 °F 29% 29.64 in 10.0 mi South 13.8 mph - N/A   Clear
8:58 AM 55.8 °F - 18.7 °F 23% 29.62 in 10.0 mi South 18.4 mph - N/A   Clear
9:58 AM 59.7 °F - 11.3 °F 15% 29.62 in 10.0 mi SW 28.8 mph 34.5 mph N/A   Clear
10:58 AM 59.9 °F - 10.8 °F 14% 29.61 in 10.0 mi SSW 31.1 mph 38.0 mph N/A   Clear
11:58 AM 60.1 °F - 14.9 °F 17% 29.61 in 10.0 mi SW 33.4 mph 43.7 mph N/A   Clear
12:58 PM 57.7 °F - 20.5 °F 24% 29.61 in 10.0 mi SW 29.9 mph 34.5 mph N/A   Clear
1:58 PM 57.6 °F - 19.0 °F 22% 29.61 in 6.0 mi WSW 31.1 mph 39.1 mph N/A   Haze
2:18 PM 55.4 °F - 19.4 °F 25% 29.73 in 2.0 mi West 34.5 mph 41.4 mph N/A   Haze
2:23 PM 53.6 °F - 19.4 °F 26% 29.73 in 1.8 mi West 31.1 mph 41.4 mph N/A   Haze
2:38 PM 53.6 °F - 19.4 °F 26% 29.75 in 2.0 mi West 31.1 mph 42.6 mph N/A   Haze
2:48 PM 51.8 °F - 19.4 °F 28% 29.75 in 2.5 mi West 32.2 mph 41.4 mph N/A   Haze
2:53 PM 51.8 °F - 19.4 °F 28% 29.76 in 2.5 mi West 31.1 mph 41.4 mph N/A   Haze
2:58 PM 52.0 °F - 19.2 °F 28% 29.67 in 2.5 mi West 28.8 mph 41.4 mph N/A   Haze
3:03 PM 51.8 °F - 17.6 °F 26% 29.76 in 3.0 mi West 32.2 mph 41.4 mph N/A   Haze
3:58 PM 49.3 °F - 16.9 °F 28% 29.70 in 3.0 mi West 31.1 mph 41.4 mph N/A   Haze
4:58 PM 46.6 °F - 12.2 °F 25% 29.75 in 6.0 mi West 26.5 mph 38.0 mph N/A   Haze
5:58 PM 43.0 °F 38.2 °F 10.6 °F 27% 29.81 in 4.0 mi WSW 8.1 mph - N/A   Haze
6:13 PM 42.8 °F 38.6 °F 10.4 °F 27% 29.87 in 6.0 mi West 6.9 mph - N/A   Haze
6:53 PM 39.2 °F 35.0 °F 8.6 °F 28% 29.88 in 10.0 mi SW 5.8 mph - N/A   Clear
6:58 PM 39.6 °F 35.4 °F 9.1 °F 29% 29.82 in 10.0 mi SW 5.8 mph - N/A   Clear
7:58 PM 39.2 °F 35.0 °F 10.4 °F 31% 29.83 in 10.0 mi SSE 5.8 mph - N/A   Clear
8:58 PM 38.3 °F 33.2 °F 11.7 °F 34% 29.84 in 10.0 mi SW 6.9 mph - N/A   Clear
9:58 PM 36.1 °F 28.7 °F 13.1 °F 39% 29.86 in 10.0 mi WSW 10.4 mph - N/A   Clear
10:58 PM 37.0 °F 34.5 °F 13.8 °F 39% 29.86 in 10.0 mi WSW 3.5 mph - N/A   Clear
11:58 PM 36.9 °F 33.1 °F 14.0 °F 39% 29.86 in 10.0 mi South 4.6 mph - N/A   Clear